NOAA 16 DEB, 41052

Orbit data source: Space-Track

NOAA 16 DEB, 41052 is space debris in LEO originally from a launch on Thu, 21 Sep 2000 UTC launched from the Air Force Western Test Range (AFWTR). Debris objects in space refer to the collection of defunct objects orbiting the Earth. Examples of debris include non-operational satellites, rocket bodies, and fragments generated from explosions, collisions, or faulty payload assembly.

Loading next visibility...
NOAA 16 DEB details
Identifier
41052, 2000-055K
Orbit
LEO
Last TLE update2 days ago
Origin
Flag of USNOAA (US)
ManufacturerUnknown
MissionSpacecraft
Bus & MotorUnknown
MassUnknown
Launch date (UTC)
2000-09-21 (24 years ago)
Launch vehicleUnknown
Launch site
Air Force Western Test Range (AFWTR)
Object type
Payload
Rocket body
Debris
Shape & HBRUnknown
Radar Cross SectionSmall (<0.1 m²)

Expand to show TLE details & history

TLE from 2 days ago
0 NOAA 16 DEB
1 41052U 00055K   24335.49903089  .00002759  00000-0  14722-2 0  9992
2 41052  98.6381   0.8296 0164979 348.0204  11.7063 14.07352010462374
Epoch: 2024-11-30T11:58Z
Definitive object data (Epoch: 2024-11-30T11:58:36.268Z)
Latitude0.00001°
Longitude111.32776°
Altitude754.341 km
Speed7.537 km/s
True Right ascension00h 03m 19s
True Declination0° 00' 00"
Sunlit
Object was in daylight at TLE epoch
Visualization TLE readout
Latitude-76.43945°
Longitude-105.71761°
Altitude880.365 km
Speed7.419 km/s
Apparent Right ascension16h 18m 29s
Apparent Declination-68° 54' 50"
Sunlit
Object is in daylight
Visualization observer readout
Local Sidereal Time05:38:32
Azimuth166.134° S
Elevation-59.091°
Doppler factor1
Orbital elements
Apogee altitude985.125 km
Perigee altitude746.112 km
Semi-major axis7,243.755 km
Eccentricity0.0164979
Inclination98.6381°
RAAN0.8296°
Arg. of periapsis348.0204°
True anomaly12.09777°
Mean anomaly11.7063°
Eccentric anomaly11.90124°
Mean motion3.52044 °/min
BSTAR0.0014722
Orbital period102.26 mins
Loading maneuver chart data...
Loading historical data...
Loading historical data...
Loading historical data...
Loading historical data...
Loading historical data...
Loading historical data...
Loading historical data...

NOAA 16 DEB Visibility forecast

Observer location: undefined°, undefined

Span
Click to sort rows by Start time (UTC) header in descending order
Start Az.
Max El. time (UTC)
Max El. Az.
Max El.
End time (UTC)
End Az.
10 mins2024-12-02 14:02:23.688Z31.652° NE2024-12-02 14:07:23.688Z93.507° ESE32.046°2024-12-02 14:12:23.688Z161.011° S
9 mins2024-12-02 15:44:23.688Z347.652° N2024-12-02 15:48:23.688Z294.455° NW28.889°2024-12-02 15:53:23.688Z233.9° WSW
8 mins2024-12-03 01:32:23.688Z144.931° SSE2024-12-03 01:35:23.688Z82.238° E40.843°2024-12-03 01:40:23.688Z354.889° N
4 mins2024-12-03 03:15:23.688Z247.301° WSW2024-12-03 03:17:23.688Z273.217° WNW14.89°2024-12-03 03:19:23.688Z297.564° NW
|